| time (UTC) | temp F | wind direction | speed MPH | gust MPH | rain 1hr in | rain 24hr in | rain mn in | humidity % | barometer mb |
| 20260504204439 | 62 | 105 | 8.0 | 10.0 | 0.00 | 0.00 | 0.00 | 34 | 1012.0 |
| 20260504202943 | 60 | 103 | 7.0 | 10.0 | 0.00 | 0.00 | 0.00 | 36 | 1012.0 |
| 20260504200939 | 58 | 128 | 6.0 | 7.0 | 0.00 | 0.00 | 0.00 | 40 | 1012.2 |
| 20260504194939 | 60 | 127 | 5.0 | 6.0 | 0.00 | 0.00 | 0.00 | 39 | 1012.2 |
| 20260504194439 | 59 | 127 | 7.0 | 8.0 | 0.00 | 0.00 | 0.00 | 39 | 1012.1 |
| 20260504193939 | 59 | 130 | 6.0 | 7.0 | 0.00 | 0.00 | 0.00 | 40 | 1012.2 |
| 20260504193439 | 60 | 130 | 5.0 | 6.0 | 0.00 | 0.00 | 0.00 | 40 | 1012.2 |
| 20260504192939 | 60 | 130 | 5.0 | 6.0 | 0.00 | 0.00 | 0.00 | 40 | 1012.2 |
| 20260504192439 | 60 | 130 | 5.0 | 5.0 | 0.00 | 0.00 | 0.00 | 39 | 1012.2 |
| 20260504191939 | 60 | 130 | 6.0 | 7.0 | 0.00 | 0.00 | 0.00 | 39 | 1012.2 |
| 20260504191439 | 60 | 130 | 5.0 | 7.0 | 0.00 | 0.00 | 0.00 | 40 | 1012.2 |
| 20260504190939 | 60 | 130 | 5.0 | 6.0 | 0.00 | 0.00 | 0.00 | 39 | 1012.2 |
| 20260504190439 | 61 | 131 | 5.0 | 6.0 | 0.00 | 0.00 | 0.00 | 39 | 1012.1 |
| 20260504184939 | 61 | 133 | 6.0 | 6.0 | 0.00 | 0.00 | 0.00 | 40 | 1012.1 |
| 20260504184442 | 61 | 133 | 5.0 | 6.0 | 0.00 | 0.00 | 0.00 | 40 | 1012.0 |
| 20260504183939 | 61 | 134 | 5.0 | 6.0 | 0.00 | 0.00 | 0.00 | 39 | 1012.0 |
| 20260504183439 | 61 | 134 | 6.0 | 7.0 | 0.00 | 0.00 | 0.00 | 39 | 1012.0 |
| 20260504182939 | 61 | 134 | 6.0 | 8.0 | 0.00 | 0.00 | 0.00 | 40 | 1012.0 |
| 20260504182439 | 62 | 136 | 5.0 | 6.0 | 0.00 | 0.00 | 0.00 | 40 | 1012.0 |
| 20260504181942 | 62 | 136 | 5.0 | 5.0 | 0.00 | 0.00 | 0.00 | 39 | 1012.0 |
| 20260504180939 | 62 | 137 | 6.0 | 6.0 | 0.00 | 0.00 | 0.00 | 39 | 1011.9 |
| 20260504180439 | 62 | 138 | 6.0 | 7.0 | 0.00 | 0.00 | 0.00 | 39 | 1011.9 |
| 20260504175939 | 62 | 138 | 5.0 | 6.0 | 0.00 | 0.00 | 0.00 | 39 | 1011.9 |
| 20260504175439 | 63 | 142 | 6.0 | 6.0 | 0.00 | 0.00 | 0.00 | 40 | 1011.9 |
| 20260504174939 | 63 | 144 | 4.0 | 5.0 | 0.00 | 0.00 | 0.00 | 40 | 1011.9 |
| 20260504174439 | 64 | 144 | 5.0 | 5.0 | 0.00 | 0.00 | 0.00 | 39 | 1011.9 |
| 20260504173939 | 64 | 144 | 4.0 | 5.0 | 0.00 | 0.00 | 0.00 | 38 | 1011.8 |
| 20260504173439 | 65 | 144 | 6.0 | 6.0 | 0.00 | 0.00 | 0.00 | 37 | 1011.7 |
| 20260504172439 | 67 | 145 | 5.0 | 6.0 | 0.00 | 0.00 | 0.00 | 37 | 1011.8 |
| 20260504171939 | 67 | 145 | 4.0 | 4.0 | 0.00 | 0.00 | 0.00 | 38 | 1011.8 |
| 20260504170939 | 68 | 144 | 5.0 | 6.0 | 0.00 | 0.00 | 0.00 | 37 | 1011.7 |
| 20260504170439 | 69 | 144 | 4.0 | 5.0 | 0.00 | 0.00 | 0.00 | 37 | 1011.7 |
| 20260504160439 | 71 | 144 | 6.0 | 9.0 | 0.00 | 0.00 | 0.00 | 35 | 1011.9 |
| 20260504150939 | 73 | 148 | 8.0 | 10.0 | 0.00 | 0.00 | 0.00 | 34 | 1012.0 |
| 20260504150439 | 73 | 129 | 11.0 | 12.0 | 0.00 | 0.00 | 0.00 | 34 | 1012.0 |
| 20260504140939 | 76 | 148 | 8.0 | 10.0 | 0.00 | 0.00 | 0.00 | 34 | 1012.4 |
| 20260504140439 | 74 | 215 | 6.0 | 8.0 | 0.00 | 0.00 | 0.00 | 32 | 1012.5 |
| 20260504130439 | 73 | 182 | 7.0 | 11.0 | 0.00 | 0.00 | 0.00 | 31 | 1012.9 |
| 20260504100439 | 67 | 155 | 7.0 | 9.0 | 0.00 | 0.00 | 0.00 | 38 | 1014.7 |
| 20260504081939 | 64 | 133 | 5.0 | 6.0 | 0.00 | 0.00 | 0.00 | 39 | 1014.7 |
| 20260504081439 | 62 | 112 | 5.0 | 8.0 | 0.00 | 0.00 | 0.00 | 39 | 1014.6 |
| 20260504080439 | 60 | 129 | 7.0 | 9.0 | 0.00 | 0.00 | 0.00 | 41 | 1014.5 |
| 20260504050439 | 52 | 114 | 6.0 | 9.0 | 0.00 | 0.00 | 0.00 | 47 | 1014.0 |
| 20260504041939 | 48 | 110 | 6.0 | 8.0 | 0.00 | 0.00 | 0.00 | 50 | 1013.9 |
| 20260504040939 | 49 | 110 | 4.0 | 4.0 | 0.00 | 0.00 | 0.00 | 48 | 1014.0 |
| 20260504040439 | 48 | 128 | 5.0 | 8.0 | 0.00 | 0.00 | 0.00 | 48 | 1014.1 |
| 20260504035939 | 48 | 135 | 4.0 | 5.0 | 0.00 | 0.00 | 0.00 | 48 | 1014.1 |
| 20260504033439 | 47 | 125 | 10.0 | 12.0 | 0.00 | 0.00 | 0.00 | 51 | 1013.8 |
| 20260504032939 | 47 | 114 | 8.0 | 10.0 | 0.00 | 0.00 | 0.00 | 50 | 1013.8 |
| 20260504032439 | 45 | 117 | 7.0 | 11.0 | 0.00 | 0.00 | 0.00 | 50 | 1013.9 |
| 20260504031439 | 46 | 138 | 5.0 | 5.0 | 0.00 | 0.00 | 0.00 | 51 | 1014.1 |
| 20260504030938 | 46 | 139 | 3.0 | 4.0 | 0.00 | 0.00 | 0.00 | 49 | 1014.2 |
| 20260504030439 | 46 | 139 | 3.0 | 3.0 | 0.00 | 0.00 | 0.00 | 48 | 1014.2 |
| 20260504025939 | 46 | 139 | 3.0 | 4.0 | 0.00 | 0.00 | 0.00 | 48 | 1014.2 |
| 20260504023939 | 48 | 139 | 4.0 | 5.0 | 0.00 | 0.00 | 0.00 | 46 | 1014.2 |
| 20260504023439 | 49 | 139 | 3.0 | 5.0 | 0.00 | 0.00 | 0.00 | 46 | 1014.2 |
| 20260504015939 | 49 | 157 | 5.0 | 6.0 | 0.00 | 0.00 | 0.00 | 45 | 1014.1 |
| 20260504015439 | 50 | 158 | 6.0 | 7.0 | 0.00 | 0.00 | 0.00 | 44 | 1014.1 |
| 20260504013938 | 50 | 148 | 8.0 | 9.0 | 0.00 | 0.00 | 0.00 | 44 | 1014.0 |
| 20260504012938 | 50 | 145 | 8.0 | 11.0 | 0.00 | 0.00 | 0.00 | 43 | 1013.9 |
| 20260504012439 | 50 | 140 | 11.0 | 15.0 | 0.00 | 0.00 | 0.00 | 43 | 1013.9 |
| 20260504011938 | 50 | 142 | 9.0 | 11.0 | 0.00 | 0.00 | 0.00 | 44 | 1013.9 |
| 20260504011439 | 50 | 141 | 11.0 | 13.0 | 0.00 | 0.00 | 0.00 | 43 | 1013.9 |
| 20260504010938 | 50 | 148 | 9.0 | 10.0 | 0.00 | 0.00 | 0.00 | 43 | 1013.9 |
| 20260504010438 | 50 | 145 | 9.0 | 11.0 | 0.00 | 0.00 | 0.00 | 43 | 1014.0 |
| 20260504005939 | 50 | 142 | 10.0 | 11.0 | 0.00 | 0.00 | 0.00 | 43 | 1014.0 |
| 20260504004938 | 50 | 141 | 10.0 | 11.0 | 0.00 | 0.00 | 0.00 | 43 | 1014.0 |
| 20260504003939 | 50 | 144 | 9.0 | 11.0 | 0.00 | 0.00 | 0.00 | 43 | 1014.1 |
| 20260504001938 | 50 | 134 | 10.0 | 11.0 | 0.00 | 0.00 | 0.00 | 42 | 1014.2 |
| 20260504001439 | 50 | 141 | 8.0 | 10.0 | 0.00 | 0.00 | 0.00 | 42 | 1014.2 |
| 20260504000938 | 50 | 140 | 9.0 | 11.0 | 0.00 | 0.00 | 0.00 | 41 | 1014.2 |
| 20260504000439 | 50 | 133 | 10.0 | 12.0 | 0.00 | 0.00 | 0.00 | 41 | 1014.2 |
| 20260503235939 | 50 | 139 | 10.0 | 11.0 | 0.00 | 0.00 | 0.00 | 41 | 1014.3 |
| 20260503235438 | 50 | 138 | 11.0 | 14.0 | 0.00 | 0.00 | 0.00 | 41 | 1014.3 |
| 20260503234938 | 50 | 136 | 11.0 | 12.0 | 0.00 | 0.00 | 0.00 | 42 | 1014.3 |
| 20260503232939 | 50 | 146 | 9.0 | 12.0 | 0.00 | 0.00 | 0.00 | 42 | 1014.4 |
| 20260503225938 | 51 | 156 | 9.0 | 10.0 | 0.00 | 0.00 | 0.00 | 41 | 1014.6 |
| 20260503223938 | 52 | 148 | 10.0 | 11.0 | 0.00 | 0.00 | 0.00 | 41 | 1014.7 |
| 20260503223438 | 52 | 144 | 9.0 | 10.0 | 0.00 | 0.00 | 0.00 | 41 | 1014.7 |
| 20260503221938 | 53 | 150 | 8.0 | 12.0 | 0.00 | 0.00 | 0.00 | 40 | 1014.8 |
| 20260503221438 | 52 | 149 | 8.0 | 9.0 | 0.00 | 0.00 | 0.00 | 40 | 1014.8 |
| 20260503220438 | 52 | 144 | 8.0 | 12.0 | 0.00 | 0.00 | 0.00 | 40 | 1014.9 |
| 20260503215938 | 52 | 141 | 9.0 | 11.0 | 0.00 | 0.00 | 0.00 | 40 | 1014.9 |
| 20260503214941 | 53 | 141 | 9.0 | 10.0 | 0.00 | 0.00 | 0.00 | 40 | 1014.9 |
| 20260503214438 | 53 | 138 | 8.0 | 11.0 | 0.00 | 0.00 | 0.00 | 40 | 1014.9 |
| 20260503212938 | 53 | 139 | 9.0 | 11.0 | 0.00 | 0.00 | 0.00 | 40 | 1015.0 |